User: anonymous
Location: UBC Liquid-Mirror Observatory
(49.2876°N, 122.5728°W)
Time: 03:06:40
(UTC-07:00)
Language:

Cosmos 1315 - Orbit

View from above orbital plane
View from above orbital plane
View from above satellite
View from above satellite

Ground track
Ground track

The orbit data is extracted from the following two-line orbital elements,

1 12903U 81103A   14108.82720416  .00036825  00000-0  75819-3 0  1474
2 12903 081.1373 222.2747 0005368 139.5477 341.5688 15.45748645781138
Epoch (UTC): 18 April 2014 19:51:10
Eccentricity: 0.0005368
inclination: 81.1373°
perigee height: 425 km
apogee height: 433 km
right ascension of ascending node: 222.2747°
argument of perigee: 139.5477°
revolutions per day: 15.45748645
mean anomaly at epoch: 341.5688°
orbit number at epoch: 78113

The dashed part of the orbit path shows where the satellite is in the earth's shadow,  

DLR